sat.trackr.live / text

‹ back to catalog

STARLINK-37656

NORAD 69649 · 2026-143A

PAYLOAD ACTIVE UNKNOWN

§ Identity

Operator
Country
US
Launch date
2026-06-21
Launch site
AFWTR
Launch vehicle
Mass (kg)
RCS (m²)

Purposes: comms

External: N2YO · Heavens-Above · Gunter

§ Orbital elements

Epoch: 2026-09-20T00:33:21.818016Z

Period
93.91 min
Inclination
97.2839°
Eccentricity
0.0001052
Mean motion
15.33450935 rev/d
Perigee alt
464.8 km
Apogee alt
466.2 km
Semi-major
6,843.7 km
B*
4.2912e-4
RAAN
306.2811°
Arg perigee
92.5131°
Mean anomaly
267.6232°
Rev number
1,514

§ Raw data

STARLINK-376561 69649U 26143A   26263.02316919  .00013806  00000+0  42912-3 0  99982 69649  97.2839 306.2811 0001052  92.5131 267.6232 15.33450935 15141

JSON: /api/v1/satellites/69649 · /tle

For live sub-satellite position, see the globe view (requires WebGL).

§ Visibility from observer

Set your observer location to see the next 7 days of passes ≥ 10°. The values pass through the URL so the page stays shareable.

No JS? Fill the form by hand. The geolocation button needs JavaScript.